                ,  0.730,  0.880,  1.030,  1.180,  1.330,  1.480,  1.630,  1.780,  1.930,  2.080,  2.230,  2.380,  2.530,  2.680,  2.830,  2.980,  3.130,  3.280,  3.430,  3.580,  3.730,  3.880,  4.030,  4.180,  4.330,  4.480,  4.630,  4.780,  4.930,  5.080,  5.230,  5.380
1999/07/21 00:00,   -0.4,    0.3,    0.3,   -0.7,   -0.7,   -1.0,   -0.9,   -1.2,   -1.2,   -1.4,   -1.4,   -1.6,   -1.5,   -1.3,   -1.0,   -0.9,   -0.7,   -0.7,   -0.8,   -1.0,   -1.0,   -1.1,   -1.0,   -0.8,   -0.9,   -1.1,  999.0,   -1.6,  999.0,  999.0,   -1.5,  999.0
1999/07/21 00:10,   -0.2,    0.1,    0.1,   -0.3,   -0.8,  999.0,   -0.8,   -1.0,   -1.1,   -1.3,   -1.4,   -1.5,   -1.5,   -1.3,   -1.1,   -1.0,   -0.9,  999.0,   -0.7,  999.0,   -1.0,   -1.0,  999.0,   -1.2,  999.0,   -1.4,   -1.6,   -1.9,  999.0,  999.0,   -1.3,   -1.1
1999/07/21 00:20,   -0.3,   -0.1,   -0.1,   -0.5,  999.0,   -0.9,   -1.1,   -1.0,   -1.1,   -1.7,   -1.7,   -1.9,   -1.8,   -1.6,   -1.4,   -1.0,   -0.9,   -0.8,   -0.9,   -0.9,   -0.6,  999.0,  999.0,   -1.0,  999.0,   -1.1,   -1.4,  999.0,  999.0,  999.0,   -1.5,   -1.4
1999/07/21 00:30,   -0.6,   -0.7,   -0.5,   -0.8,   -1.1,   -1.2,   -1.3,   -1.2,   -1.3,   -1.5,   -1.5,   -1.5,   -1.6,   -1.6,   -1.3,   -1.1,   -0.9,   -0.9,   -0.6,   -0.6,   -0.5,   -0.6,  999.0,  999.0,  999.0,   -0.8,   -1.0,   -1.2,  999.0,   -1.3,   -1.1,   -1.0
1999/07/21 00:40,   -0.4,   -0.3,   -0.7,   -1.0,   -1.1,   -1.4,   -1.4,   -1.3,   -1.2,   -1.5,   -1.5,   -1.6,   -1.7,   -2.0,  999.0,   -1.8,   -1.4,   -1.2,   -1.0,   -1.0,  999.0,   -0.9,  999.0,  999.0,  999.0,  999.0,   -0.9,   -1.1,  999.0,   -1.3,  999.0,   -1.0
1999/07/21 00:50,   -0.3,  999.0,   -0.5,   -0.8,   -0.9,   -1.5,   -1.5,   -1.0,   -0.9,   -1.1,   -1.2,   -1.4,   -1.5,   -1.7,   -1.9,   -1.8,   -1.5,   -1.4,   -1.3,   -1.2,  999.0,   -1.2,   -1.1,  999.0,  999.0,  999.0,   -1.0,   -1.2,  999.0,   -1.5,   -1.2,   -1.0
1999/07/21 01:00,   -0.1,   -0.1,   -0.3,  999.0,   -0.8,   -1.3,   -1.5,   -1.3,   -1.3,   -1.3,   -1.4,   -1.4,   -1.5,   -1.5,   -1.5,   -1.4,   -1.2,   -1.2,   -1.2,   -1.0,  999.0,   -0.8,   -0.8,  999.0,  999.0,  999.0,   -1.0,   -1.2,  999.0,  999.0,   -1.3,   -1.0
1999/07/21 01:10,    0.1,   -0.0,   -0.0,   -0.2,   -0.6,   -1.2,   -1.5,   -1.4,   -1.2,   -1.1,   -1.1,   -1.3,   -1.4,   -1.4,   -1.4,   -1.1,   -1.0,   -1.0,   -1.0,   -0.7,   -0.9,  999.0,   -0.9,   -0.9,   -0.9,   -0.9,   -0.9,   -1.1,  999.0,   -1.1,   -1.2,   -1.0
1999/07/21 01:20,   -0.5,   -0.4,   -0.4,   -0.4,   -0.6,   -1.2,   -1.6,   -1.4,   -1.3,   -1.1,   -1.1,   -1.1,   -1.3,   -1.4,   -1.4,   -1.2,   -1.0,  999.0,   -1.1,   -0.8,   -0.6,  999.0,   -0.8,   -0.9,   -1.1,   -1.1,   -1.2,   -1.2,   -1.3,   -1.4,   -1.2,   -1.1
1999/07/21 01:30,  999.0,   -1.0,   -1.4,   -0.9,   -1.1,   -1.5,   -1.5,   -1.3,   -1.3,   -1.3,   -1.1,   -1.2,   -1.3,   -1.3,   -1.4,   -1.4,   -1.1,   -1.1,   -1.0,   -0.9,  999.0,   -0.9,   -1.0,  999.0,   -1.0,   -1.0,   -1.0,   -1.2,   -1.1,   -1.1,   -1.2,   -1.1
1999/07/21 01:40,   -0.4,   -0.1,   -0.4,   -0.9,   -1.2,   -1.5,   -1.4,   -1.3,   -1.3,   -1.4,   -1.4,   -1.4,   -1.4,   -1.4,   -1.4,   -1.4,   -1.3,   -1.2,   -1.0,   -0.9,   -0.7,   -0.7,   -0.7,  999.0,   -0.7,   -0.8,  999.0,  999.0,   -1.0,   -1.2,   -1.2,   -1.1
1999/07/21 01:50,   -0.3,   -0.4,   -0.5,   -1.0,   -1.2,   -1.5,   -1.6,   -1.3,   -1.1,   -1.0,   -1.0,   -1.1,   -1.4,   -1.4,   -1.3,   -1.4,   -1.3,   -1.1,   -0.9,   -0.9,   -0.7,   -0.7,   -0.8,  999.0,   -0.9,   -0.9,  999.0,   -1.2,   -0.9,   -1.1,   -1.0,   -0.8
1999/07/21 02:00,   -0.3,  999.0,  999.0,   -1.3,   -1.3,   -1.5,   -1.6,   -1.3,  999.0,   -1.2,  999.0,   -1.5,   -1.8,   -1.7,   -1.9,   -1.8,   -1.7,   -1.3,   -1.0,   -0.9,   -0.6,   -0.6,   -0.8,  999.0,  999.0,   -0.9,   -1.1,   -1.1,   -0.9,   -1.0,   -0.9,   -0.9
1999/07/21 02:10,   -0.3,   -0.6,   -1.4,   -1.3,   -1.3,   -1.4,   -1.4,   -1.2,  999.0,  999.0,  999.0,  999.0,  999.0,   -2.4,   -2.2,   -2.0,   -1.9,   -2.1,   -1.5,   -1.1,   -0.6,   -0.6,  999.0,  999.0,   -1.0,   -0.9,   -1.1,   -1.2,   -1.0,   -1.2,   -1.1,   -1.0
1999/07/21 02:20,   -0.2,   -0.4,   -0.9,   -1.4,   -1.5,   -1.5,   -1.6,   -1.3,   -1.2,   -1.0,   -1.0,   -0.9,  999.0,   -1.2,   -1.4,   -1.6,   -1.5,   -1.4,   -1.2,   -1.1,   -0.8,   -0.6,   -1.1,  999.0,   -1.0,   -0.9,   -0.9,   -1.0,   -1.1,   -1.2,   -1.2,   -1.1
1999/07/21 02:30,   -0.4,   -0.6,   -1.6,   -1.7,   -1.8,   -1.8,   -1.5,   -1.3,   -1.4,   -1.1,   -1.2,   -1.1,  999.0,   -1.2,   -1.2,   -1.4,   -1.5,   -1.2,   -1.0,   -0.9,   -0.8,   -0.7,   -0.9,  999.0,   -0.9,   -1.0,   -1.2,   -1.3,   -1.2,   -1.1,   -0.9,   -0.9
1999/07/21 02:40,   -0.7,   -1.4,   -1.8,   -1.6,   -1.6,   -1.7,   -1.4,   -1.3,   -1.3,   -1.0,   -1.1,   -1.1,   -1.1,   -1.0,   -1.1,   -1.1,   -1.2,   -1.3,   -0.8,   -0.8,   -0.7,  999.0,  999.0,  999.0,   -0.8,  999.0,   -0.9,   -1.2,   -1.1,   -1.1,   -1.0,   -1.0
1999/07/21 02:50,   -0.6,   -1.0,   -1.3,   -1.7,   -1.5,   -1.6,   -1.4,   -1.0,   -1.2,   -1.2,   -1.1,   -1.0,   -1.1,   -1.1,   -1.2,   -1.3,   -1.2,   -1.0,   -0.7,   -0.6,   -0.8,  999.0,  999.0,  999.0,  999.0,  999.0,   -0.8,   -0.9,   -1.2,   -1.0,   -1.1,   -0.9
1999/07/21 03:00,   -0.6,   -1.2,   -1.2,   -1.4,   -1.3,   -1.2,   -1.1,   -0.9,   -0.8,   -0.8,   -0.8,   -0.8,   -0.8,   -0.8,   -1.1,   -1.1,   -1.1,   -0.9,   -0.7,   -0.6,   -0.7,   -0.8,   -0.8,   -0.8,  999.0,   -0.8,   -1.0,   -1.2,   -1.1,   -1.1,   -1.1,   -1.1
1999/07/21 03:10,   -0.9,   -1.2,   -1.5,   -1.6,   -1.5,   -1.4,   -1.4,   -1.1,   -0.9,   -1.0,   -0.9,   -0.9,   -1.3,   -1.2,   -1.1,   -1.3,   -1.3,   -1.1,   -0.8,   -0.7,   -0.8,   -1.1,   -1.1,   -0.7,   -0.6,   -0.6,   -0.8,   -1.0,   -1.1,   -1.1,   -1.3,   -1.4
1999/07/21 03:20,   -1.1,   -1.4,   -1.6,   -1.6,   -1.6,   -1.5,   -1.5,   -1.4,   -1.3,   -1.3,   -1.2,   -1.0,   -1.0,   -1.2,   -1.1,   -1.1,   -1.1,   -1.2,   -0.9,   -0.6,   -0.8,   -0.9,   -1.0,   -0.8,   -0.7,   -0.6,   -0.8,   -1.0,   -1.0,   -1.1,   -1.3,   -1.3
1999/07/21 03:30,   -0.9,   -1.1,   -1.3,   -1.4,   -1.4,   -1.5,   -1.5,   -1.4,   -1.2,   -1.2,   -1.2,   -1.0,   -1.0,   -1.2,   -1.1,   -1.1,   -1.2,   -1.1,   -1.1,   -0.8,   -0.7,   -0.7,   -0.8,   -0.8,   -0.5,   -0.4,   -0.6,   -0.7,   -0.8,   -1.0,   -1.2,   -1.1
1999/07/21 03:40,   -1.0,   -1.2,   -1.3,   -1.4,   -1.5,   -1.6,   -1.6,   -1.5,   -1.4,   -1.3,  999.0,   -1.0,   -1.1,   -1.2,   -1.3,   -1.1,   -1.3,   -1.2,   -1.1,   -0.9,   -0.7,   -0.6,   -0.8,   -1.0,   -1.0,  999.0,   -0.9,   -0.8,  999.0,   -0.9,   -1.3,   -1.4
1999/07/21 03:50,   -1.0,   -1.2,   -1.4,   -1.6,   -1.7,   -1.6,   -1.6,   -1.5,   -1.4,   -1.3,   -1.1,   -1.0,   -1.2,   -1.3,   -1.1,   -1.1,   -1.2,   -1.0,   -1.0,   -0.8,   -0.6,   -0.6,   -0.6,   -0.8,   -1.0,   -1.0,   -1.2,   -1.0,   -0.9,   -1.0,  999.0,   -1.3
1999/07/21 04:00,   -1.1,   -1.2,   -1.3,   -1.5,   -1.6,   -1.6,   -1.6,   -1.4,   -1.4,   -1.2,   -1.0,   -0.9,   -0.9,   -1.1,   -1.1,   -1.0,   -1.0,   -1.1,   -1.0,   -1.1,   -0.9,   -0.6,  999.0,  999.0,   -0.8,   -0.9,   -0.9,   -0.7,   -0.7,  999.0,   -1.1,   -1.2
1999/07/21 04:10,   -0.9,   -1.3,   -1.3,   -1.4,   -1.4,   -1.5,   -1.5,   -1.4,   -1.3,   -1.1,   -0.8,   -0.9,   -0.9,   -1.0,   -1.0,   -1.0,   -1.1,   -1.2,  999.0,   -1.2,   -0.9,   -0.7,   -0.4,   -0.6,   -0.9,   -0.9,   -0.8,   -0.9,   -0.9,   -1.0,   -1.0,   -1.1
1999/07/21 04:20,   -0.8,   -1.1,   -1.2,   -1.3,   -1.4,   -1.4,   -1.4,   -1.2,   -1.2,   -1.1,  999.0,   -0.6,   -0.8,   -0.7,   -0.7,   -0.8,   -0.9,   -1.1,   -1.2,  999.0,   -1.2,   -0.9,   -0.7,   -0.7,   -0.9,   -1.1,  999.0,   -1.0,   -1.0,   -1.2,   -1.3,   -1.4
1999/07/21 04:30,   -1.0,   -1.1,   -1.4,   -1.6,   -1.6,   -1.5,   -1.4,   -1.3,   -1.3,   -1.1,  999.0,   -0.6,   -0.6,   -0.6,   -0.6,   -0.5,   -0.7,   -0.8,   -0.8,   -0.8,   -0.7,   -0.6,   -0.5,   -0.7,  999.0,  999.0,  999.0,  999.0,  999.0,  999.0,   -1.1,   -1.1
1999/07/21 04:40,   -0.7,   -1.0,   -1.2,   -1.1,   -1.3,   -1.3,   -1.3,   -1.0,   -1.0,   -0.9,   -0.9,   -0.7,   -0.8,   -0.9,   -0.9,  999.0,   -0.8,   -0.9,   -0.9,   -1.0,  999.0,   -0.7,   -0.6,   -0.8,  999.0,  999.0,  999.0,  999.0,  999.0,  999.0,   -1.2,   -1.0
1999/07/21 04:50,   -0.7,   -0.9,   -1.1,   -1.2,   -1.2,   -1.2,   -1.4,   -1.2,   -1.0,   -0.9,   -0.8,   -0.8,   -1.0,  999.0,   -1.0,   -1.0,   -1.2,   -1.3,   -1.4,  999.0,   -1.1,   -1.0,  999.0,  999.0,  999.0,  999.0,  999.0,   -0.7,  999.0,  999.0,  999.0,   -0.7
1999/07/21 05:00,   -0.9,   -1.0,   -1.2,   -1.4,   -1.4,   -1.4,   -1.4,   -1.3,   -1.2,   -1.0,   -0.8,   -0.7,   -0.9,   -1.0,   -1.0,   -0.9,   -1.1,   -1.1,   -1.1,   -1.0,   -1.1,   -0.9,   -0.9,  999.0,  999.0,  999.0,  999.0,  999.0,  999.0,  999.0,  999.0,   -0.9
1999/07/21 05:10,   -0.9,   -0.9,   -1.0,   -1.3,   -1.3,   -1.3,   -1.4,   -1.4,   -1.3,   -1.2,   -1.0,   -0.7,   -0.8,   -1.0,   -0.9,   -0.8,   -0.9,   -1.0,   -1.1,   -1.0,   -1.0,  999.0,  999.0,  999.0,  999.0,  999.0,  999.0,   -0.9,  999.0,  999.0,  999.0,  999.0
1999/07/21 05:20,  999.0,   -0.9,   -1.2,   -1.3,   -1.3,   -1.4,   -1.4,   -1.4,   -1.4,   -1.3,   -0.9,   -0.7,   -0.7,   -0.9,   -0.8,   -0.8,   -0.9,   -0.9,   -0.9,   -0.9,   -0.9,   -1.0,  999.0,  999.0,   -0.7,  999.0,   -0.9,   -0.9,  999.0,   -1.0,  999.0,   -1.2
1999/07/21 05:30,   -0.9,   -1.0,   -1.0,   -1.4,   -1.1,   -1.2,   -1.3,   -1.4,   -1.4,   -1.3,   -1.2,   -1.0,   -0.8,   -1.0,   -0.9,   -0.8,   -0.9,   -1.1,   -0.9,   -1.1,   -0.9,   -0.8,   -0.7,  999.0,   -0.8,   -1.0,   -1.1,  999.0,  999.0,  999.0,  999.0,   -0.8
1999/07/21 05:40,   -1.1,   -1.1,   -1.2,   -1.3,   -1.4,   -1.4,   -1.4,   -1.4,   -1.4,   -1.3,   -1.2,   -1.2,   -1.0,  999.0,   -1.1,   -1.1,   -1.2,   -1.2,   -1.0,   -1.1,   -1.0,   -0.9,   -0.8,   -0.8,   -1.0,   -1.1,   -1.1,  999.0,  999.0,   -0.9,  999.0,   -0.8
1999/07/21 05:50,   -1.0,   -1.1,   -1.4,   -1.3,   -1.3,   -1.5,   -1.6,   -1.6,   -1.4,   -1.3,   -1.3,   -1.2,   -1.0,   -1.0,   -1.1,   -1.0,   -1.0,   -0.9,   -0.9,   -0.9,  999.0,  999.0,   -0.9,   -0.7,  999.0,   -0.7,   -0.8,  999.0,  999.0,   -0.7,  999.0,  999.0
1999/07/21 06:00,   -1.0,   -1.0,   -1.1,   -1.3,   -1.3,   -1.3,   -1.3,   -1.3,   -1.2,   -1.3,   -1.2,   -1.0,   -0.9,   -0.9,   -1.1,   -1.0,   -1.1,   -1.1,   -1.0,   -1.1,   -0.8,   -0.8,   -0.8,   -0.7,   -0.8,  999.0,  999.0,  999.0,   -0.9,   -1.1,  999.0,   -0.9
1999/07/21 06:10,   -1.1,  999.0,   -1.2,   -1.3,   -1.5,   -1.4,   -1.2,   -1.3,   -1.2,  999.0,   -1.3,   -1.2,   -1.0,   -1.0,   -1.2,   -1.1,   -1.2,   -1.3,   -1.2,   -1.1,   -1.0,   -0.8,  999.0,  999.0,   -0.7,  999.0,  999.0,  999.0,  999.0,   -0.7,  999.0,   -0.7
1999/07/21 06:20,   -0.9,   -0.9,   -1.2,   -1.4,   -1.5,   -1.4,   -1.4,   -1.3,   -1.2,   -1.2,   -1.3,   -1.2,   -1.1,  999.0,  999.0,   -0.8,   -0.9,   -0.9,   -0.9,   -0.8,   -0.9,   -0.7,   -0.6,   -0.4,   -0.3,  999.0,  999.0,  999.0,  999.0,  999.0,  999.0,  999.0
1999/07/21 06:30,   -0.7,   -0.8,   -1.0,   -1.2,  999.0,   -1.1,   -1.1,   -1.3,   -1.1,   -1.1,   -1.2,   -1.2,  999.0,  999.0,  999.0,   -0.9,   -0.9,   -0.8,  999.0,   -0.7,   -0.7,   -0.7,   -0.8,   -0.5,   -0.4,   -0.4,  999.0,  999.0,  999.0,   -0.8,  999.0,   -0.9
1999/07/21 06:40,   -1.0,   -1.1,   -1.2,   -1.3,   -1.2,   -1.3,   -1.3,   -1.2,   -1.4,   -1.0,   -1.1,  999.0,   -0.8,  999.0,  999.0,   -0.7,   -0.7,   -0.8,  999.0,  999.0,  999.0,   -0.8,   -0.8,   -0.7,   -0.7,  999.0,   -0.8,  999.0,  999.0,  999.0,  999.0,  999.0
1999/07/21 06:50,   -0.8,   -1.0,   -0.9,   -1.3,   -1.1,   -1.1,   -1.0,   -1.2,   -1.2,   -1.0,   -1.1,   -1.0,   -0.9,   -0.9,   -0.9,   -0.8,   -0.8,  999.0,   -1.0,   -1.1,   -0.9,   -0.9,   -0.8,   -0.7,   -0.6,   -0.6,   -0.8,  999.0,  999.0,   -0.9,   -0.8,   -1.0
1999/07/21 07:00,   -0.7,   -0.9,   -1.0,   -1.3,   -1.3,   -1.2,   -1.3,   -1.3,   -1.3,   -1.3,   -1.1,   -1.2,   -1.0,   -0.8,   -0.9,   -0.8,   -0.8,   -0.9,   -1.0,   -1.0,  999.0,  999.0,   -0.9,   -0.6,   -0.6,   -0.7,   -0.8,  999.0,  999.0,   -0.9,  999.0,   -0.8
1999/07/21 07:10,   -0.8,   -0.9,   -0.9,   -1.3,   -1.5,   -1.4,   -1.5,   -1.4,   -1.3,   -1.2,   -1.3,   -1.3,   -1.2,   -1.1,   -0.9,   -0.9,   -0.7,   -0.8,   -0.9,   -1.0,   -1.0,   -0.9,   -0.9,   -0.8,   -0.7,   -0.8,   -0.9,  999.0,   -0.9,   -1.0,   -0.9,   -1.0
1999/07/21 07:20,   -0.7,   -0.7,   -0.9,   -1.3,   -1.4,   -1.3,   -1.2,   -1.3,   -1.3,  999.0,   -1.1,   -1.1,   -1.1,   -1.0,   -1.0,   -0.9,   -1.0,   -0.9,   -0.9,   -0.9,  999.0,  999.0,   -0.7,   -0.7,   -0.6,   -0.6,  999.0,  999.0,   -0.8,   -0.6,   -0.8,   -0.8
1999/07/21 07:30,   -0.6,   -0.9,   -1.1,   -1.3,   -1.4,   -1.4,   -1.4,   -1.4,   -1.3,   -1.2,   -1.1,   -1.0,   -1.0,   -1.0,   -1.0,   -1.0,   -0.9,   -1.0,   -1.0,   -1.0,   -1.1,   -0.7,   -0.6,   -0.7,  999.0,  999.0,   -0.7,  999.0,   -0.9,  999.0,   -1.0,   -1.1
1999/07/21 07:40,   -0.3,   -0.5,   -0.7,   -1.1,   -1.3,   -1.2,   -1.3,   -1.3,   -1.0,  999.0,   -0.9,   -0.9,   -0.9,   -0.8,   -0.9,   -0.9,   -0.7,   -0.8,   -0.8,   -0.8,   -0.7,   -0.7,   -0.6,   -0.6,  999.0,  999.0,   -0.3,   -0.4,   -0.5,   -0.6,  999.0,   -0.9
1999/07/21 07:50,   -0.3,   -0.6,   -0.8,   -1.0,   -1.4,   -1.4,   -1.5,   -1.4,   -1.1,   -1.1,   -1.0,   -1.0,   -0.9,   -0.9,   -0.9,   -0.9,   -0.9,   -0.8,   -0.8,   -1.0,  999.0,   -0.9,   -0.9,   -0.8,   -0.7,  999.0,   -0.5,   -0.6,   -0.8,  999.0,  999.0,   -1.0
1999/07/21 08:00,   -0.3,   -0.6,   -0.8,   -1.3,   -1.3,   -1.7,   -1.5,   -1.4,   -1.3,   -1.2,   -1.0,   -1.0,   -0.9,   -0.9,   -0.8,  999.0,   -0.9,   -0.8,  999.0,  999.0,  999.0,   -1.0,   -0.9,   -0.9,  999.0,  999.0,   -0.6,   -0.6,  999.0,  999.0,  999.0,  999.0
1999/07/21 08:10,   -0.1,   -0.6,   -0.7,   -1.0,   -1.2,   -1.5,   -1.5,   -1.4,   -1.3,   -1.0,   -0.9,   -1.1,   -1.1,   -1.0,   -1.0,   -1.0,   -1.0,   -0.9,   -0.8,   -1.0,  999.0,  999.0,   -0.9,   -1.0,   -0.8,   -0.5,  999.0,   -0.6,  999.0,  999.0,   -0.8,  999.0
1999/07/21 08:20,   -0.2,   -0.3,   -0.5,   -0.9,   -1.1,   -1.3,   -1.3,   -1.4,   -1.4,   -1.1,   -1.0,   -1.2,   -1.1,   -0.9,   -1.1,   -1.0,  999.0,   -0.9,   -1.0,   -1.1,   -1.2,  999.0,   -1.1,   -1.0,   -0.9,  999.0,   -0.6,   -0.7,  999.0,  999.0,  999.0,  999.0
1999/07/21 08:30,   -0.1,   -0.2,   -0.6,   -0.9,   -1.2,   -1.5,  999.0,   -1.4,   -1.3,   -1.3,   -1.0,   -1.2,  999.0,  999.0,   -1.0,   -0.9,  999.0,   -0.9,   -0.9,   -0.9,   -0.9,   -0.9,  999.0,   -0.9,   -1.0,  999.0,  999.0,  999.0,   -0.6,  999.0,  999.0,  999.0
1999/07/21 08:40,   -0.2,   -0.3,   -0.8,   -0.9,   -1.2,   -1.6,   -1.8,   -1.4,   -1.4,   -1.2,   -0.9,   -1.1,   -1.0,   -0.9,   -0.9,   -0.9,   -0.8,   -0.9,   -0.9,   -0.8,   -0.8,   -0.9,   -0.9,   -0.9,  999.0,  999.0,  999.0,  999.0,  999.0,  999.0,  999.0,  999.0
1999/07/21 08:50,   -0.5,   -0.3,   -0.7,   -0.9,   -1.2,   -1.7,   -1.6,  999.0,   -1.4,   -1.4,  999.0,   -1.1,   -1.0,   -1.0,   -0.8,   -1.0,   -0.7,   -0.8,   -0.8,   -0.7,   -0.8,  999.0,   -0.9,   -0.7,  999.0,  999.0,   -0.6,   -0.5,  999.0,  999.0,  999.0,  999.0
1999/07/21 09:00,    0.0,   -0.2,   -0.5,   -0.7,   -1.3,   -1.3,   -1.2,   -1.2,   -1.3,   -1.2,   -1.2,   -1.0,   -1.0,   -0.9,   -0.4,   -0.8,  999.0,   -0.9,   -0.9,   -0.8,   -0.9,  999.0,   -1.0,   -0.9,   -0.9,  999.0,  999.0,   -0.5,  999.0,  999.0,   -0.5,  999.0
1999/07/21 09:10,   -0.3,   -0.1,   -0.2,   -0.6,   -1.4,   -1.3,   -1.3,   -1.3,   -1.5,   -1.3,   -1.1,   -1.0,   -1.0,   -0.7,  999.0,   -0.6,   -0.7,   -0.9,   -0.9,   -0.9,   -1.1,  999.0,   -1.0,   -0.9,   -0.8,   -0.8,  999.0,   -0.5,  999.0,  999.0,   -0.5,  999.0
1999/07/21 09:20,   -0.3,   -0.5,   -0.4,   -0.6,   -1.2,   -1.2,   -1.3,   -1.4,   -1.3,   -1.2,   -1.0,   -0.8,   -0.8,  999.0,   -0.0,   -0.2,   -0.6,   -0.8,   -0.9,  999.0,   -0.9,   -0.9,   -0.9,   -0.8,   -0.7,  999.0,  999.0,  999.0,  999.0,  999.0,   -0.6,  999.0
1999/07/21 09:30,   -0.0,   -0.4,   -0.6,   -1.1,   -1.2,   -1.3,   -1.2,   -1.4,   -1.4,   -1.3,   -1.2,   -1.1,   -0.8,   -0.7,   -0.1,  999.0,   -0.5,   -0.8,  999.0,  999.0,   -0.9,   -1.1,   -0.9,   -0.7,   -0.7,  999.0,  999.0,  999.0,  999.0,  999.0,   -0.7,  999.0
1999/07/21 09:40,   -0.5,   -0.8,   -1.0,   -1.2,   -1.4,   -1.5,   -1.8,   -1.6,   -1.6,   -1.5,   -1.3,   -1.1,   -0.9,  999.0,    0.0,   -0.0,   -0.5,   -0.7,   -0.8,   -0.7,   -0.8,   -0.9,   -0.9,   -0.8,   -0.7,  999.0,  999.0,   -0.6,  999.0,   -0.4,   -0.4,  999.0
1999/07/21 09:50,   -0.5,    0.2,    0.1,   -0.8,   -1.2,   -1.8,   -1.3,   -1.8,   -1.8,   -1.7,   -1.8,   -1.5,   -1.3,  999.0,  999.0,  999.0,   -0.8,   -0.9,   -0.9,   -0.8,   -0.8,   -0.9,  999.0,  999.0,   -0.7,  999.0,  999.0,  999.0,   -0.7,   -0.5,   -0.7,  999.0
1999/07/21 10:00,   -0.7,   -1.2,   -0.8,   -0.9,   -1.4,   -1.6,   -2.0,   -1.9,   -2.0,   -1.5,   -1.6,   -1.3,   -1.2,  999.0,  999.0,  999.0,  999.0,  999.0,   -0.8,   -0.8,   -0.8,   -0.8,   -0.7,  999.0,   -0.5,  999.0,  999.0,  999.0,  999.0,   -0.3,   -0.4,  999.0
1999/07/21 10:10,   -0.7,   -0.8,   -1.1,   -1.7,   -1.7,   -1.7,   -1.8,   -1.7,   -1.8,   -1.5,   -1.5,   -1.5,   -1.2,   -1.1,  999.0,  999.0,  999.0,  999.0,  999.0,   -0.7,   -0.7,   -0.8,   -0.6,  999.0,   -0.5,   -0.4,  999.0,  999.0,  999.0,   -0.4,   -0.5,  999.0
1999/07/21 10:20,   -0.2,   -0.7,   -0.5,   -0.7,   -1.5,   -1.8,   -1.7,   -1.7,   -1.6,   -1.4,   -1.3,   -1.3,   -1.3,   -1.1,  999.0,  999.0,  999.0,  999.0,  999.0,   -1.0,   -0.9,  999.0,  999.0,   -0.6,   -0.6,   -0.7,   -0.7,  999.0,  999.0,   -0.7,  999.0,  999.0
1999/07/21 10:30,   -0.8,   -1.1,   -1.5,  999.0,   -1.7,   -1.8,   -1.6,   -1.7,   -1.5,   -1.5,   -1.3,   -1.3,   -1.3,   -1.1,  999.0,   -0.8,   -0.9,  999.0,   -1.0,   -0.9,   -0.7,  999.0,   -0.5,  999.0,   -0.5,   -0.3,  999.0,  999.0,  999.0,   -0.6,  999.0,  999.0
1999/07/21 10:40,   -0.4,   -0.4,   -0.8,   -1.0,   -1.1,   -1.4,   -1.3,   -1.3,   -1.2,   -1.2,   -1.0,   -0.9,   -1.0,   -1.0,  999.0,   -0.2,  999.0,   -0.4,   -0.5,   -0.8,   -0.8,   -0.5,   -0.3,  999.0,  999.0,   -0.7,   -0.6,  999.0,  999.0,   -0.8,   -0.8,  999.0
1999/07/21 10:50,   -0.0,   -0.1,   -0.4,   -1.3,   -1.0,   -1.0,   -1.0,   -1.1,   -1.0,   -0.9,   -0.9,   -0.9,   -0.9,   -1.0,   -1.0,   -0.0,   -0.6,  999.0,   -0.6,   -0.6,  999.0,  999.0,   -0.4,  999.0,   -0.7,   -0.7,   -0.5,   -0.5,   -0.7,  999.0,   -0.6,  999.0
1999/07/21 11:00,   -0.6,   -0.0,  999.0,  999.0,   -0.4,   -0.5,   -0.8,   -1.1,   -1.3,   -1.4,   -1.0,   -1.0,   -1.0,   -0.9,   -0.4,   -0.6,   -0.8,  999.0,   -1.0,   -1.0,   -1.0,  999.0,   -0.7,   -0.9,  999.0,   -0.8,   -0.6,   -0.6,  999.0,  999.0,   -0.7,  999.0
1999/07/21 11:10,    0.4,    0.0,    0.3,   -0.4,   -0.6,   -0.8,   -1.0,   -0.9,   -0.9,   -0.7,   -0.7,   -0.8,   -1.1,   -1.1,   -1.0,  999.0,   -1.0,   -1.1,   -1.2,   -1.3,   -1.3,  999.0,   -1.1,   -1.1,   -1.1,   -0.9,   -0.5,   -0.6,  999.0,  999.0,   -0.6,  999.0
1999/07/21 11:20,   -0.3,   -0.3,   -0.4,   -0.9,   -1.1,   -1.0,   -1.3,   -1.3,   -1.6,   -1.4,   -1.0,   -0.7,   -0.9,   -0.8,   -0.8,   -0.7,   -0.7,   -0.9,   -1.0,   -1.0,   -1.0,   -1.2,   -1.0,  999.0,   -0.7,   -0.7,   -0.5,   -0.4,  999.0,  999.0,   -0.4,  999.0
1999/07/21 11:30,   -0.4,   -0.3,   -0.7,   -0.5,   -0.8,   -0.4,   -0.7,   -0.8,   -0.9,   -0.9,   -1.0,   -0.9,   -1.0,   -0.8,   -0.9,   -0.6,   -0.6,   -0.7,   -1.0,  999.0,   -0.8,   -1.0,   -0.9,   -0.8,   -0.8,   -0.8,  999.0,   -0.4,  999.0,  999.0,   -0.4,  999.0
1999/07/21 11:40,   -0.7,   -0.8,   -0.8,   -0.6,   -0.7,   -0.8,   -0.9,   -1.0,   -0.9,   -1.0,   -0.8,   -0.6,   -0.6,   -0.8,   -0.8,   -0.7,   -0.9,   -0.8,   -0.8,   -0.8,   -0.5,  999.0,   -0.8,   -1.0,   -0.9,   -0.9,   -0.6,   -0.6,  999.0,  999.0,  999.0,  999.0
1999/07/21 11:50,   -1.0,   -0.5,   -0.9,   -0.8,   -0.9,   -0.9,   -1.2,   -1.4,   -1.4,   -1.0,   -0.9,   -0.7,  999.0,   -1.0,   -1.1,   -1.3,   -0.8,   -0.7,   -0.7,   -0.8,   -0.7,   -0.8,  999.0,   -0.8,   -0.9,   -0.8,   -0.8,   -0.7,  999.0,  999.0,   -0.4,  999.0
1999/07/21 12:00,   -0.8,   -0.6,   -0.5,   -0.4,   -0.6,   -0.8,   -0.9,   -1.1,   -1.1,   -1.2,   -1.1,   -0.8,   -0.6,   -0.9,   -1.1,   -1.5,  999.0,   -0.9,  999.0,   -0.9,   -1.2,   -1.2,   -1.1,   -0.9,   -0.8,   -0.6,   -0.5,   -0.3,   -0.3,  999.0,   -0.8,  999.0
1999/07/21 12:10,   -0.4,   -0.3,   -0.5,   -0.5,   -0.7,   -0.7,   -0.8,   -0.8,   -0.7,   -0.6,   -0.5,   -0.4,   -0.3,   -0.5,   -0.8,   -0.7,  999.0,  999.0,   -0.8,   -0.9,  999.0,   -1.0,  999.0,   -1.0,  999.0,  999.0,  999.0,   -0.5,   -0.5,   -0.5,  999.0,  999.0
1999/07/21 12:20,   -0.4,   -0.3,   -0.5,   -0.5,   -0.8,   -0.9,   -1.2,   -1.3,   -1.0,   -0.8,   -0.5,   -0.3,   -0.3,   -0.5,   -0.7,   -0.9,   -1.0,   -0.8,   -0.9,   -0.9,   -0.8,   -0.9,  999.0,   -0.9,   -0.7,  999.0,   -0.7,   -0.7,   -0.6,   -0.9,  999.0,  999.0
1999/07/21 12:30,   -0.8,   -0.9,   -0.8,   -1.1,   -1.3,   -1.4,   -1.5,   -1.5,   -1.4,   -1.4,   -1.1,   -0.6,   -0.5,   -0.7,   -0.8,  999.0,  999.0,   -1.0,   -1.0,   -1.0,   -1.0,  999.0,  999.0,  999.0,  999.0,   -0.4,   -0.3,   -0.1,   -0.1,   -0.4,  999.0,  999.0
1999/07/21 12:40,   -0.5,   -0.4,   -0.6,   -0.8,   -0.8,   -1.1,   -1.2,   -1.3,   -1.1,  999.0,   -1.1,   -0.7,   -0.7,   -0.7,   -0.9,   -1.0,   -1.0,   -1.0,   -0.9,   -1.0,   -1.3,   -1.0,   -0.9,  999.0,   -0.9,   -0.5,   -0.4,   -0.3,   -0.4,   -0.6,   -0.8,  999.0
1999/07/21 12:50,   -0.5,   -0.5,   -0.7,   -0.7,   -1.0,   -1.2,   -1.4,   -1.3,   -1.3,   -1.1,   -0.9,   -0.6,   -0.6,   -0.8,   -1.0,   -1.1,   -1.2,   -1.3,   -1.2,   -1.4,   -1.4,   -1.3,   -1.6,   -0.7,   -0.9,   -0.4,   -0.6,   -0.6,   -0.5,   -0.6,   -0.9,  999.0
1999/07/21 13:00,   -0.2,    0.0,    0.3,   -0.0,   -0.4,   -0.7,   -1.1,   -1.3,   -1.1,   -0.7,   -0.5,   -0.3,   -0.4,   -0.5,   -0.8,   -0.9,   -0.9,   -1.0,   -0.9,   -1.1,   -0.9,   -1.2,   -0.9,   -0.7,   -0.6,    0.0,   -0.3,   -0.5,   -0.2,   -0.5,   -0.8,  999.0
1999/07/21 13:10,    0.0,   -0.0,   -0.0,   -0.0,   -0.3,   -0.5,   -0.8,   -0.7,   -0.4,   -0.5,   -0.4,   -0.4,   -0.2,   -0.4,   -0.6,   -0.6,   -0.8,   -1.0,   -0.9,   -0.8,   -0.9,   -0.9,   -1.0,   -0.6,   -0.5,   -0.4,   -0.4,   -0.5,   -0.5,   -0.6,   -1.0,  999.0
1999/07/21 13:20,   -1.2,   -0.2,   -0.2,   -0.5,   -0.7,   -0.9,   -0.9,   -0.9,   -1.1,   -1.1,   -0.7,   -0.5,   -0.5,   -0.6,   -0.6,   -0.5,   -0.7,   -0.7,   -0.8,   -0.9,   -0.9,  999.0,  999.0,   -0.7,   -0.4,   -0.3,   -0.3,   -0.5,   -0.6,   -0.7,   -0.9,   -0.7
1999/07/21 13:30,    0.2,   -0.1,   -0.1,   -0.5,   -0.7,   -0.5,   -0.6,   -0.9,   -0.8,   -0.8,   -0.8,   -0.6,   -0.5,   -0.3,   -0.5,   -0.7,   -0.8,   -0.9,   -0.8,   -1.0,   -1.1,   -1.1,   -1.1,   -0.6,   -0.5,   -0.5,  999.0,   -0.2,   -0.3,   -0.4,   -0.6,  999.0
1999/07/21 13:40,   -0.0,    0.2,   -0.2,   -0.4,   -0.3,   -0.6,   -0.6,   -0.8,   -0.9,   -1.0,   -0.9,   -0.6,   -0.5,   -0.6,   -0.8,   -0.9,   -1.0,   -1.0,   -1.0,   -1.0,   -1.2,   -0.9,   -0.8,   -0.8,   -0.9,  999.0,   -0.4,   -0.4,   -0.4,   -0.6,   -0.2,  999.0
1999/07/21 13:50,   -0.0,   -0.3,   -0.4,   -0.8,   -0.9,   -1.0,   -0.9,   -0.9,   -1.1,   -1.1,   -0.9,   -0.7,   -0.6,   -0.8,   -0.8,   -1.1,   -1.2,   -1.2,   -1.1,   -1.1,   -1.0,   -0.9,   -0.7,   -0.7,   -0.5,   -0.4,   -0.3,   -0.3,   -0.2,   -0.3,  999.0,   -0.4
1999/07/21 14:00,   -0.6,   -0.8,   -1.0,   -1.2,   -1.1,   -1.3,   -1.4,   -1.3,   -1.3,   -1.2,   -1.1,   -1.1,   -1.1,   -0.6,   -0.7,   -0.3,   -1.2,   -1.1,   -0.7,   -0.6,   -0.4,   -0.4,   -0.4,   -0.2,   -0.1,    0.0,   -0.1,   -0.1,   -0.1,   -0.3,   -0.4,  999.0
1999/07/21 14:10,   -0.9,   -1.0,   -2.0,   -2.4,   -1.4,   -1.2,   -1.1,   -1.0,   -1.2,   -0.9,   -1.2,   -1.4,   -1.1,   -0.7,   -0.4,   -0.5,   -0.5,   -0.7,   -0.7,   -0.8,   -0.8,   -0.9,   -0.8,   -0.6,   -0.2,   -0.1,   -0.0,   -0.1,   -0.3,   -0.5,   -0.5,  999.0
1999/07/21 14:20,    0.2,   -2.1,   -2.2,   -2.9,   -2.7,   -3.3,   -3.1,   -0.6,    1.8,   -2.2,   -2.2,   -1.9,   -2.5,   -2.5,   -2.5,   -2.0,   -2.4,   -2.5,   -2.4,   -1.4,   -1.6,   -1.4,   -0.8,   -0.2,    2.8,  999.0,    1.8,   -1.0,    0.6,    1.7,   -1.7,   -0.9
1999/07/21 14:30,   -4.3,   -2.7,   -2.7,   -1.5,   -1.3,   -1.2,   -1.7,    1.2,    1.1,    0.9,    4.1,    2.5,    5.5,    4.9,    4.8,    4.3,    7.0,    6.9,    3.9,    2.5,   -0.5,   -1.8,   -3.3,   -7.5,   -7.1,   -7.0,   -7.1,   -6.1,   -6.3,   -6.0,   -5.4,   -5.4
1999/07/21 14:40,   -3.4,   -0.8,   -0.4,   -3.1,   -2.5,   -2.5,   -2.0,    0.5,   -2.1,   -0.1,    3.0,    2.5,    2.4,    2.9,    0.8,    3.1,   -0.2,   -0.0,   -2.9,   -6.0,    2.6,   -0.1,   -2.9,    0.1,   -7.5,   -7.5,   -7.0,   -6.3,   -5.3,   -4.8,   -4.5,   -4.3
1999/07/21 14:50,   -7.9,   -7.4,   -7.1,   -6.5,   -6.1,   -5.6,   -5.0,   -6.0,   -7.2,   -7.4,   -7.4,   -7.3,   -7.6,   -7.4,   -7.5,   -7.5,   -7.7,   -7.8,   -7.5,   -7.5,   -7.4,   -7.0,   -7.4,   -7.3,   -7.0,   -5.9,   -5.0,   -4.3,  999.0,  999.0,   -3.2,   -3.5
1999/07/21 15:00,   -7.9,   -4.6,   -3.8,   -3.9,   -3.9,   -3.5,   -1.8,   -2.8,   -3.4,   -3.5,   -6.1,   -3.1,   -2.5,   -2.7,   -7.4,   -7.2,   -0.8,   -0.6,   -1.1,   -1.2,   -1.0,    2.4,   -0.6,   -1.7,   -4.9,   -6.1,   -6.0,   -5.4,   -5.3,   -4.7,   -3.9,   -3.9
1999/07/21 15:10,   -7.9,   -4.2,    0.3,    0.3,    0.7,    0.2,   -2.4,    1.4,   -0.6,   -0.5,   -0.8,   -3.0,    0.3,   -6.8,   -6.2,   -6.0,   -5.3,   -3.1,   -1.6,   -0.5,    1.2,   -0.7,   -4.3,   -5.5,   -5.7,   -6.8,   -6.9,   -7.5,   -6.9,   -6.0,   -5.9,   -4.9
1999/07/21 15:20,    1.3,   -0.5,    6.5,    7.3,    7.4,    7.3,    7.6,    7.5,    7.1,    4.2,    2.0,    4.3,    2.1,   -0.3,   -7.3,   -7.6,   -0.0,    3.4,    3.1,    6.8,    7.0,    3.4,    4.3,    4.5,   -3.1,   -6.9,   -2.4,   -7.0,   -7.7,   -7.4,   -7.7,   -7.2
1999/07/21 15:30,    0.0,   -0.2,   -0.2,   -1.8,   -2.0,    3.1,    4.7,    1.2,    2.7,    2.7,    4.3,    4.5,    2.5,    3.8,    3.5,    2.4,    1.2,    2.7,    3.0,    3.0,    3.0,    6.8,    3.0,   -0.9,   -0.1,   -3.5,   -3.1,   -7.0,   -7.0,   -6.6,   -6.3,   -5.7
1999/07/21 15:40,   -8.3,   -7.9,   -8.0,   -8.1,   -5.6,   -2.3,   -0.4,    1.9,    1.8,    1.8,    2.2,    2.3,    0.4,   -1.5,   -5.4,   -5.3,   -6.9,   -7.5,   -3.9,   -2.4,   -7.1,   -3.8,   -8.0,   -6.5,   -6.9,   -6.3,   -6.0,   -6.2,   -5.0,   -5.9,   -5.9,   -5.6
1999/07/21 15:50,   -2.2,    1.0,    0.9,    2.8,    2.8,   -0.2,   -0.3,   -0.2,   -1.7,   -3.6,   -1.5,   -0.6,   -0.0,   -1.2,   -3.0,   -2.2,   -1.8,   -2.2,   -2.6,   -1.5,   -2.0,   -3.5,   -2.8,   -3.4,   -1.9,   -3.3,   -3.1,   -2.3,   -1.9,   -2.2,   -2.5,   -2.2
1999/07/21 16:00,   -7.5,   -8.0,   -8.1,   -8.0,   -7.9,   -7.7,   -8.1,  999.0,   -7.4,   -7.4,   -7.4,   -8.0,   -8.1,   -7.9,   -8.0,   -8.4,  999.0,  999.0,  999.0,   -8.2,  999.0,   -8.7,   -7.9,   -7.1,   -5.3,   -5.1,   -4.1,   -3.9,   -5.3,  999.0,  999.0,  999.0
1999/07/21 16:10,   -6.7,   -6.5,   -6.3,   -6.2,   -6.3,   -6.3,   -6.8,   -6.6,   -6.7,   -6.8,   -6.2,   -7.2,   -6.9,   -6.5,   -6.5,   -6.2,   -5.6,   -5.5,   -6.7,   -6.0,   -6.5,   -6.6,   -6.4,   -6.0,   -5.8,   -5.1,   -5.1,   -4.9,   -4.4,   -4.0,   -4.1,   -3.6
1999/07/21 16:20,   -6.6,   -6.2,   -6.3,   -5.9,   -5.4,   -5.6,   -6.0,   -6.1,   -6.0,   -6.6,   -6.6,   -6.2,   -6.1,   -5.9,   -6.2,   -6.9,   -7.4,   -6.5,   -6.4,   -5.9,   -5.1,   -4.3,   -3.8,   -3.8,   -3.3,   -3.2,   -2.6,   -1.9,   -2.4,   -2.7,   -3.5,   -3.4
1999/07/21 16:30,   -6.0,   -6.2,   -6.6,   -5.9,   -6.2,   -6.7,   -6.6,   -6.1,   -6.8,   -6.3,   -6.4,   -6.9,   -6.9,   -6.7,   -6.4,   -6.6,   -6.5,   -7.1,   -7.0,   -5.8,   -7.0,   -5.6,   -5.8,   -5.3,   -5.1,   -4.8,   -4.8,   -4.6,   -3.9,   -3.2,   -2.6,   -2.3
1999/07/21 16:40,   -3.7,   -4.5,   -4.6,   -4.4,   -5.1,   -5.4,   -5.6,   -5.8,   -6.2,   -5.7,   -6.1,   -5.4,   -5.1,   -6.1,   -4.8,   -4.8,   -4.4,   -4.4,   -4.0,   -3.0,   -3.4,   -3.5,   -3.6,   -3.5,   -3.3,   -3.3,   -3.0,   -2.5,   -1.8,   -0.9,   -0.8,   -0.8
1999/07/21 16:50,    0.0,   -0.2,   -0.1,   -0.0,    0.1,   -0.0,   -0.1,   -0.2,   -0.3,   -0.3,   -0.3,   -0.4,   -0.4,   -0.1,   -0.1,   -0.1,   -0.0,   -0.1,   -0.1,    0.0,    0.3,    0.3,    0.3,    0.2,   -0.5,   -0.7,   -0.8,   -0.8,   -0.9,   -0.5,   -0.3,   -0.5
1999/07/21 17:00,    0.0,   -0.1,   -0.2,   -0.1,   -0.1,   -0.2,   -0.3,   -0.3,   -0.2,   -0.2,   -0.1,    0.1,    0.0,   -0.1,    0.0,    0.1,    0.1,    0.2,    0.3,    0.5,    0.4,    0.3,    0.2,   -0.1,   -0.1,    0.1,   -0.0,   -0.2,   -0.3,   -0.4,   -0.4,   -0.1
1999/07/21 17:10,   -0.1,   -0.1,   -0.0,   -0.1,   -0.0,    0.0,    0.0,   -0.0,   -0.1,   -0.0,   -0.0,   -0.2,   -0.4,   -0.3,   -0.2,   -0.3,   -0.2,   -0.1,   -0.0,    0.1,    0.2,    0.2,    0.2,    0.1,    0.0,   -0.1,   -0.0,   -0.2,   -0.2,   -0.3,   -0.2,   -0.1
1999/07/21 17:20,    0.1,    0.0,    0.0,    0.2,    0.3,    0.2,    0.1,    0.2,    0.1,    0.0,    0.1,   -0.1,   -0.1,    0.1,    0.1,    0.1,    0.1,    0.1,    0.2,    0.1,    0.2,    0.2,    0.3,    0.3,    0.2,    0.2,    0.1,    0.3,    0.1,    0.1,    0.0,   -0.2
1999/07/21 17:30,   -0.2,   -0.2,   -0.1,    0.0,   -0.1,   -0.0,   -0.1,   -0.0,   -0.1,   -0.1,   -0.2,    0.0,   -0.1,   -0.1,   -0.2,   -0.1,   -0.2,   -0.1,   -0.0,   -0.2,   -0.1,   -0.1,   -0.1,   -0.3,   -0.2,   -0.1,   -0.1,   -0.1,   -0.1,   -0.1,   -0.0,    0.1
1999/07/21 17:40,   -0.2,   -0.2,   -0.2,   -0.2,   -0.2,   -0.1,   -0.1,    0.1,    0.1,   -0.1,   -0.1,   -0.1,   -0.2,   -0.1,    0.0,   -0.0,   -0.0,    0.0,    0.1,    0.1,    0.1,    0.1,    0.1,    0.1,    0.1,    0.2,    0.0,    0.3,    0.1,    0.1,    0.2,    0.2
1999/07/21 17:50,    0.1,    0.1,   -0.0,    0.0,    0.1,    0.1,    0.1,    0.2,    0.1,    0.1,    0.1,    0.1,    0.1,    0.1,    0.1,    0.1,   -0.0,   -0.0,   -0.1,   -0.1,   -0.0,   -0.1,   -0.5,   -0.4,   -0.3,   -0.3,   -0.2,   -0.4,  999.0,   -0.2,   -0.1,   -0.1
1999/07/21 18:00,    0.0,    0.0,    0.1,    0.1,    0.1,    0.2,    0.2,    0.1,    0.0,   -0.0,    0.0,   -0.0,   -0.1,   -0.2,   -0.2,    0.0,   -0.4,   -0.1,   -0.0,    0.0,    0.0,   -0.0,   -0.1,    0.1,    0.2,    0.2,    0.2,  999.0,    0.2,    0.2,    0.2,    0.2
1999/07/21 18:10,   -0.0,    0.0,    0.0,   -0.0,    0.1,    0.0,   -0.1,   -0.0,   -0.0,   -0.1,   -0.1,   -0.1,   -0.2,   -0.2,   -0.2,   -0.2,   -0.1,   -0.1,   -0.1,   -0.1,   -0.1,   -0.1,   -0.1,   -0.1,    0.0,    0.0,   -0.0,    0.1,   -0.0,   -0.1,    0.1,   -0.0
1999/07/21 18:20,   -0.2,   -0.2,   -0.1,   -0.1,    0.1,   -0.1,   -0.0,    0.0,    0.2,    0.2,    0.1,    0.1,    0.0,   -0.2,   -0.1,    0.0,   -0.0,   -0.1,   -0.1,   -0.1,  999.0,   -0.1,   -0.2,   -0.2,   -0.2,   -0.2,   -0.2,   -0.2,   -0.2,   -0.3,   -0.3,   -0.2
1999/07/21 18:30,    0.1,    0.1,    0.2,    0.2,    0.1,   -0.0,    0.0,   -0.1,   -0.1,   -0.1,   -0.3,   -0.2,   -0.5,   -0.4,   -0.0,   -0.0,   -0.1,   -0.1,   -0.1,  999.0,  999.0,   -0.0,   -0.1,   -0.1,   -0.2,   -0.2,   -0.1,   -0.1,   -0.2,   -0.2,   -0.1,  999.0
1999/07/21 18:40,    0.2,    0.3,    0.3,    0.3,    0.2,   -0.0,   -0.0,   -0.0,   -0.1,   -0.2,   -0.4,  999.0,  999.0,   -0.7,   -0.6,   -0.4,  999.0,  999.0,    0.1,    0.1,  999.0,    0.1,   -0.1,   -0.0,    0.1,    0.0,   -0.1,   -0.1,   -0.3,   -0.2,   -0.0,    0.1
1999/07/21 18:50,   -0.1,   -0.0,   -0.0,   -0.1,   -0.1,    0.1,   -0.1,   -0.1,   -0.1,   -0.1,   -0.0,   -0.1,   -0.2,   -0.2,   -0.3,   -0.2,   -0.2,   -0.3,   -0.0,    0.0,  999.0,    0.5,    0.4,    0.5,    0.3,    0.3,    0.4,    0.2,    0.1,    0.1,    0.1,    0.2
1999/07/21 19:00,    0.2,    0.1,    0.1,    0.3,    0.4,    0.2,    0.2,  999.0,  999.0,    0.1,   -0.0,   -0.1,   -0.2,   -0.4,   -0.3,  999.0,  999.0,   -0.1,   -0.1,    0.2,  999.0,  999.0,    0.2,  999.0,    0.3,    0.2,    0.1,  999.0,    0.1,   -0.0,  999.0,  999.0
1999/07/21 19:10,    0.4,  999.0,    0.3,    0.3,  999.0,    0.2,    0.1,    0.2,    0.1,   -0.0,   -0.2,   -0.3,   -0.3,   -0.3,   -0.3,   -0.3,   -0.3,   -0.2,   -0.1,   -0.1,    0.1,    0.0,  999.0,    0.1,    0.0,    0.2,  999.0,  999.0,    0.0,    0.2,  999.0,  999.0
1999/07/21 19:20,    0.3,    0.4,    0.4,    0.3,    0.3,    0.2,    0.0,    0.1,   -0.1,   -0.2,   -0.2,   -0.2,   -0.2,   -0.2,   -0.3,   -0.2,   -0.2,   -0.2,  999.0,  999.0,   -0.0,  999.0,  999.0,  999.0,   -0.2,  999.0,   -0.2,  999.0,    0.0,    0.1,  999.0,  999.0
1999/07/21 19:30,  999.0,    0.3,    0.2,    0.2,    0.1,    0.1,    0.2,    0.1,    0.1,   -0.0,   -0.1,   -0.2,   -0.1,   -0.1,   -0.1,   -0.0,    0.1,    0.1,    0.1,    0.2,   -0.1,  999.0,  999.0,  999.0,    0.2,  999.0,  999.0,   -0.1,    0.0,    0.0,  999.0,  999.0
1999/07/21 19:40,    0.4,  999.0,    0.3,    0.3,    0.4,    0.2,    0.2,    0.1,    0.1,    0.1,   -0.0,    0.1,   -0.1,  999.0,   -0.2,   -0.2,   -0.2,  999.0,   -0.1,   -0.1,  999.0,  999.0,  999.0,    0.1,  999.0,  999.0,  999.0,  999.0,   -0.0,   -0.1,  999.0,  999.0
1999/07/21 19:50,    0.7,    0.5,    0.5,    0.3,    0.3,  999.0,    0.1,    0.1,   -0.1,   -0.1,   -0.1,   -0.0,  999.0,   -0.1,   -0.1,   -0.2,   -0.1,  999.0,   -0.0,    0.0,    0.0,  999.0,  999.0,    0.2,  999.0,  999.0,  999.0,  999.0,   -0.0,   -0.0,   -0.1,  999.0
1999/07/21 20:00,    0.8,    0.7,    0.4,    0.2,    0.2,    0.1,   -0.0,   -0.0,   -0.1,  999.0,    0.1,  999.0,  999.0,  999.0,    0.0,   -0.1,   -0.0,  999.0,    0.0,    0.2,    0.2,    0.3,  999.0,    0.3,  999.0,  999.0,  999.0,  999.0,   -0.0,   -0.1,   -0.1,  999.0
1999/07/21 20:10,    0.5,    0.4,  999.0,    0.2,   -0.2,   -0.2,   -0.2,   -0.2,   -0.4,   -0.5,   -0.4,   -0.6,   -0.6,   -0.5,  999.0,   -0.4,   -0.3,   -0.3,  999.0,  999.0,   -0.1,   -0.0,  999.0,    0.1,  999.0,  999.0,  999.0,  999.0,    0.1,    0.1,  999.0,  999.0
1999/07/21 20:20,  999.0,  999.0,    0.4,  999.0,   -0.0,   -0.1,   -0.2,   -0.2,   -0.3,   -0.4,   -0.4,   -0.3,   -0.2,   -0.2,   -0.1,   -0.1,   -0.1,   -0.1,  999.0,    0.1,  999.0,    0.2,  999.0,    0.3,    0.3,    0.1,  999.0,  999.0,   -0.0,   -0.2,  999.0,  999.0
1999/07/21 20:30,    0.1,    0.1,   -0.0,   -0.1,   -0.2,   -0.2,   -0.3,   -0.3,   -0.3,   -0.3,   -0.4,   -0.4,   -0.3,   -0.2,   -0.1,   -0.1,   -0.1,   -0.0,    0.0,    0.0,  999.0,    0.1,  999.0,    0.0,    0.2,    0.3,    0.1,  999.0,   -0.1,    0.0,  999.0,  999.0
1999/07/21 20:40,    0.3,    0.0,    0.0,    0.0,   -0.0,   -0.0,   -0.1,   -0.1,   -0.2,   -0.1,   -0.2,   -0.2,   -0.1,   -0.1,   -0.1,   -0.0,    0.1,    0.1,    0.1,    0.2,    0.2,  999.0,    0.0,  999.0,  999.0,  999.0,  999.0,  999.0,    0.3,  999.0,  999.0,  999.0
1999/07/21 20:50,   -0.4,  999.0,   -0.0,   -0.1,   -0.1,   -0.1,   -0.2,   -0.2,   -0.2,   -0.2,   -0.2,   -0.1,   -0.1,    0.1,    0.0,    0.0,    0.0,    0.0,    0.0,  999.0,  999.0,  999.0,  999.0,  999.0,  999.0,  999.0,  999.0,  999.0,   -0.1,   -0.0,  999.0,  999.0
1999/07/21 21:00,    0.1,   -0.2,    0.1,   -0.1,   -0.1,   -0.1,    0.0,    0.0,   -0.0,   -0.0,   -0.1,   -0.0,   -0.0,    0.1,    0.2,    0.2,    0.2,    0.2,    0.1,  999.0,  999.0,  999.0,    0.0,  999.0,  999.0,    0.0,   -0.1,  999.0,   -0.1,  999.0,  999.0,  999.0
1999/07/21 21:10,   -0.3,   -0.1,   -0.3,   -0.2,   -0.3,   -0.2,    0.1,    0.1,   -0.2,   -0.1,    0.0,   -0.2,    0.1,    0.1,    0.1,    0.0,    0.1,    0.1,    0.0,   -0.1,   -0.1,  999.0,  999.0,  999.0,  999.0,  999.0,  999.0,  999.0,    0.0,   -0.1,  999.0,  999.0
1999/07/21 21:20,  999.0,   -0.1,   -0.2,   -0.1,   -0.0,   -0.1,   -0.0,    0.0,    0.1,    0.1,    0.0,    0.1,    0.1,    0.0,    0.0,    0.1,    0.0,    0.1,   -0.0,   -0.1,   -0.1,   -0.1,  999.0,  999.0,  999.0,  999.0,  999.0,  999.0,  999.0,  999.0,  999.0,  999.0
1999/07/21 21:30,  999.0,   -0.1,   -0.1,   -0.1,   -0.1,    0.0,   -0.1,   -0.2,  999.0,   -0.1,   -0.1,   -0.1,   -0.0,   -0.1,   -0.0,    0.1,    0.1,    0.1,    0.2,    0.2,    0.2,    0.2,  999.0,  999.0,  999.0,   -0.0,    0.0,    0.2,  999.0,  999.0,  999.0,  999.0
1999/07/21 21:40,   -0.4,    0.0,   -0.2,   -0.1,   -0.1,   -0.1,   -0.2,   -0.2,   -0.2,   -0.2,   -0.1,   -0.0,    0.0,   -0.1,   -0.0,    0.0,    0.1,    0.2,    0.2,    0.1,    0.1,    0.1,    0.1,   -0.1,    0.1,  999.0,  999.0,   -0.1,  999.0,  999.0,  999.0,  999.0
1999/07/21 21:50,   -0.0,   -0.1,   -0.5,  999.0,   -0.2,   -0.2,   -0.0,    0.0,    0.1,    0.1,    0.1,    0.1,    0.1,    0.2,    0.2,    0.1,    0.0,    0.1,    0.1,    0.1,    0.1,    0.1,    0.2,    0.1,  999.0,   -0.0,   -0.1,  999.0,    0.1,  999.0,  999.0,    0.3
1999/07/21 22:00,    0.2,    0.1,   -0.1,   -0.0,   -0.0,   -0.0,   -0.0,   -0.1,   -0.0,   -0.1,    0.0,   -0.3,   -0.0,   -0.0,    0.1,    0.1,    0.1,    0.1,    0.1,    0.0,    0.1,   -0.0,  999.0,  999.0,   -0.1,   -0.0,    0.2,  999.0,  999.0,  999.0,  999.0,  999.0
1999/07/21 22:10,   -0.3,   -0.2,   -0.3,   -0.1,   -0.1,   -0.0,   -0.1,   -0.0,   -0.0,   -0.1,    0.1,    0.0,   -0.1,   -0.2,   -0.2,   -0.1,    0.1,   -0.1,    0.3,    0.2,    0.3,    0.0,  999.0,  999.0,    0.2,    0.1,    0.0,   -0.2,  999.0,  999.0,  999.0,  999.0
1999/07/21 22:20,    0.3,    0.2,    0.2,    0.0,    0.0,   -0.1,   -0.1,   -0.2,   -0.2,   -0.2,   -0.1,    0.0,   -0.0,   -0.1,    0.1,    0.1,    0.1,    0.2,    0.1,    0.0,   -0.1,   -0.1,   -0.3,  999.0,   -0.2,  999.0,  999.0,   -0.1,  999.0,  999.0,  999.0,  999.0
1999/07/21 22:30,    0.1,    0.1,    0.1,   -0.0,   -0.1,   -0.2,   -0.1,   -0.1,   -0.0,    0.1,    0.1,    0.2,    0.1,    0.1,    0.0,    0.1,    0.1,    0.0,    0.1,    0.1,    0.0,   -0.0,   -0.1,   -0.2,    0.0,    0.2,  999.0,  999.0,  999.0,  999.0,  999.0,  999.0
1999/07/21 22:40,   -0.1,   -0.1,   -0.1,   -0.1,   -0.1,   -0.1,   -0.1,   -0.2,   -0.1,   -0.1,   -0.0,    0.0,    0.0,    0.1,    0.1,    0.2,    0.1,    0.1,    0.1,    0.0,    0.0,   -0.0,   -0.1,   -0.1,   -0.1,   -0.1,   -0.0,   -0.1,  999.0,  999.0,  999.0,  999.0
1999/07/21 22:50,    0.0,    0.1,    0.0,   -0.0,    0.0,    0.1,    0.1,    0.2,    0.0,    0.0,   -0.0,    0.0,   -0.1,   -0.0,    0.0,   -0.0,    0.1,    0.1,    0.0,   -0.1,   -0.0,   -0.4,   -0.4,   -0.1,   -0.2,   -0.1,  999.0,  999.0,  999.0,  999.0,  999.0,  999.0
1999/07/21 23:00,    0.2,    0.1,    0.1,    0.1,    0.1,    0.1,    0.1,    0.0,   -0.0,    0.0,   -0.0,   -0.0,    0.0,    0.1,    0.1,    0.1,    0.1,    0.1,    0.0,    0.0,   -0.0,   -0.1,   -0.1,    0.0,    0.1,    0.1,  999.0,   -0.2,    0.0,    0.1,  999.0,  999.0
1999/07/21 23:10,    0.2,    0.2,    0.2,    0.1,    0.0,   -0.1,   -0.1,   -0.1,   -0.1,   -0.1,  999.0,   -0.3,   -0.3,   -0.2,   -0.0,   -0.0,   -0.1,   -0.1,   -0.2,   -0.2,   -0.3,  999.0,   -0.3,   -0.3,   -0.1,   -0.1,  999.0,   -0.3,   -0.3,   -0.2,   -0.3,  999.0
1999/07/21 23:20,  999.0,    0.2,    0.1,    0.1,    0.1,    0.2,    0.2,    0.1,    0.1,    0.1,    0.1,    0.1,    0.1,    0.0,    0.1,   -0.0,   -0.1,   -0.0,   -0.0,   -0.1,   -0.1,  999.0,   -0.0,    0.1,    0.0,    0.1,  999.0,   -0.0,    0.1,    0.2,    0.1,  999.0
1999/07/21 23:30,   -0.1,   -0.2,   -0.1,   -0.2,   -0.2,   -0.1,   -0.2,   -0.2,   -0.1,   -0.0,   -0.1,   -0.2,   -0.2,   -0.1,   -0.0,   -0.1,   -0.1,   -0.1,   -0.2,   -0.1,   -0.2,  999.0,   -0.2,   -0.0,   -0.0,  999.0,  999.0,  999.0,    0.0,  999.0,    0.4,  999.0
1999/07/21 23:40,    0.0,   -0.0,   -0.0,   -0.1,   -0.0,   -0.1,   -0.1,   -0.0,   -0.0,   -0.0,   -0.1,   -0.1,   -0.1,   -0.0,    0.0,    0.1,    0.1,    0.1,    0.1,    0.1,   -0.0,  999.0,   -0.0,    0.0,    0.1,    0.0,  999.0,   -0.0,  999.0,    0.0,  999.0,  999.0
1999/07/21 23:50,    0.2,    0.2,    0.2,    0.1,    0.1,   -0.0,    0.1,    0.0,   -0.0,   -0.1,   -0.1,   -0.1,   -0.1,   -0.1,   -0.1,    0.0,    0.1,    0.1,    0.1,    0.0,    0.0,    0.0,    0.0,   -0.1,    0.0,   -0.1,  999.0,  999.0,  999.0,  999.0,  999.0,  999.0
